CDT,Max TemperatureF,Mean TemperatureF,Min TemperatureF,Max Dew PointF,MeanDew PointF,Min DewpointF,Max Humidity, Mean Humidity, Min Humidity, Max Sea Level PressureIn, Mean Sea Level PressureIn, Min Sea Level PressureIn, Max VisibilityMiles, Mean VisibilityMiles, Min VisibilityMiles, Max Wind SpeedMPH, Mean Wind SpeedMPH, Max Gust SpeedMPH,PrecipitationIn, CloudCover, Events, WindDirDegrees
2011-10-1,80,65,49,54,47,42,93,61,28,30.18,30.11,30.06,10,10,10,14,4,20,0.00,0,,40
2011-10-2,76,62,47,53,47,43,93,63,33,30.23,30.17,30.14,10,10,10,12,3,15,0.00,0,,42
2011-10-3,79,64,49,53,47,41,93,61,28,30.26,30.20,30.17,10,10,9,10,2,14,0.00,0,,66
2011-10-4,82,65,48,56,49,43,100,64,28,30.27,30.20,30.15,10,10,5,14,3,18,0.00,0,,79
2011-10-5,84,68,52,59,52,50,100,66,31,30.19,30.14,30.08,10,10,10,12,5,14,0.00,0,,75
2011-10-6,85,72,58,65,61,58,100,72,44,30.15,30.11,30.08,10,9,4,16,7,21,0.00,1,,96
2011-10-7,86,74,61,65,63,60,100,74,48,30.19,30.14,30.11,10,10,8,18,8,25,0.00,1,,92
2011-10-8,86,75,63,70,65,58,93,72,51,30.15,30.11,30.07,10,10,10,18,9,25,T,1,Rain,88
2011-10-9,84,75,66,66,64,61,100,76,51,30.09,30.03,29.96,10,10,10,18,8,24,0.00,1,,81
2011-10-10,83,73,63,68,65,61,93,74,55,30.01,29.95,29.89,10,10,10,12,4,18,0.00,1,,49
2011-10-11,83,72,61,65,64,61,100,76,51,29.93,29.88,29.83,10,10,6,12,3,20,0.00,1,,51
2011-10-12,86,73,59,69,63,58,100,76,51,29.88,29.83,29.76,10,8,2,20,4,23,0.02,2,Rain,285
2011-10-13,84,71,57,68,60,48,100,66,31,29.88,29.82,29.79,10,10,5,14,5,20,0.00,1,,299
2011-10-14,85,69,52,59,54,49,100,65,29,30.03,29.96,29.88,10,10,7,10,2,14,0.00,0,,86
2011-10-15,86,70,53,61,55,50,100,66,31,30.12,30.07,30.03,10,10,10,9,2,13,0.00,0,,79
2011-10-16,89,71,53,64,58,53,100,66,32,30.13,30.07,30.00,10,10,8,10,2,14,0.00,0,,96
2011-10-17,88,71,53,70,60,53,100,68,36,30.01,29.93,29.81,10,8,1,13,4,15,0.00,2,,148
2011-10-18,80,64,48,72,62,42,100,86,71,29.91,29.76,29.69,10,5,0,22,7,36,T,5,Fog-Rain,349
2011-10-19,65,53,41,45,38,29,93,61,28,30.04,29.92,29.87,10,10,10,23,7,31,0.00,0,,299
2011-10-20,69,53,36,44,35,26,92,57,22,30.15,30.10,30.05,10,10,10,15,3,22,0.00,0,,297
2011-10-21,77,58,39,48,40,33,96,60,23,30.25,30.19,30.15,10,10,8,8,2,13,0.00,0,,351
2011-10-22,78,63,48,56,47,40,93,62,31,30.20,30.13,30.07,10,10,10,9,2,14,0.00,4,,90
2011-10-23,81,68,54,67,58,50,100,72,44,30.11,30.06,30.00,10,9,3,12,4,16,0.10,5,Rain,205
2011-10-24,82,67,52,66,61,53,100,69,37,30.21,30.16,30.10,10,8,1,10,2,22,0.04,3,Fog-Rain,21
2011-10-25,82,66,49,60,54,49,100,70,39,30.22,30.15,30.08,10,10,10,13,4,17,0.00,1,,125
2011-10-26,82,68,53,63,56,52,100,68,36,30.09,30.03,29.94,10,5,0,10,4,16,0.00,1,Fog,140
2011-10-27,85,71,57,66,58,50,100,66,31,29.95,29.90,29.85,10,8,2,9,1,14,0.00,0,Fog,120
2011-10-28,63,56,48,62,54,43,100,86,71,30.17,30.02,29.90,10,9,2,14,7,22,0.33,7,Rain,337
2011-10-29,68,55,41,43,39,31,92,59,26,30.26,30.17,30.12,10,10,10,18,4,24,0.00,0,,2
2011-10-30,69,54,38,48,41,36,100,67,34,30.23,30.18,30.14,10,10,9,10,1,13,0.00,0,,70
2011-10-31,74,58,41,50,43,38,100,65,29,30.24,30.19,30.14,10,10,9,10,1,15,0.00,0,,24